Tracking 29892 objects as of 21-Nov-2024
HD Live streaming from Space Station
objects crossing your sky now

NOAA 16 DEB

Track NOAA 16 DEB now!
10-day predictions


NORAD ID: 41654
Int'l Code: 2000-055NT
Perigee: 793.4 km
Apogee: 850.2 km
Inclination: 98.7 °
Period: 101.2 minutes
Semi major axis: 7192 km
RCS: Unknown
Launch date: September 21, 2000
Source: United States (US)
Launch site: AIR FORCE WESTERN TEST RANGE (AFWTR)

Note: This is SATELLITE DEBRIS
Your satellite tracking list
Your tracking list is empty




NASA's NSSDC Master Catalog

Two Line Element Set (TLE):
1 41654U 00055NT  24325.10747440  .00006860  00000-0  30285-2 0  9993
2 41654  98.6572  12.3496 0039450  28.1694 332.1607 14.23171420443441
Source of the keplerian elements: AFSPC